FDX9900 KOAK-EBLG

Flight info

Callsign FDX9900
Flight time N/A
Altitude 32000
Route OAK DCT ORRCA DCT FMG J32 LLC DCT ROOHZ Q138 PARZZ DCT KU90Q DCT KU18W DCT JARLY DCT 53N095W 55N090W 57N085W 59N080W 60N075W DCT FEDDY/M084F320 DCT KETLA DCT 63N050W 63N040W 62N030W 60N020W DCT ERAKA/N0485F320 DCT ETSOM DCT MAKUX DCT SOSIM L15 BIG Q70 KOK
Aircraft B77L/H-SDE1E2E3FGHIJ2J3J4J5M1RWXY/LB1D1

Departure

Time N/A
Airport San Francisco Bay Oakland International Airport (KOAK)

Arrival

Time 2026-05-05 17:09
Airport Liège Airport (EBLG)
Time Latitude Longitude Altitude Speed Heading
2026-05-05 14:38 60.64590 -22.72777 32242 ft 541 kts 111°
2026-05-05 14:38 60.63037 -22.65796 32244 ft 540 kts 111°
2026-05-05 14:39 60.59929 -22.51894 32244 ft 540 kts 111°
2026-05-05 14:39 60.56809 -22.38027 32248 ft 539 kts 111°
2026-05-05 14:40 60.53673 -22.24183 32250 ft 538 kts 112°
2026-05-05 14:40 60.50536 -22.10418 32251 ft 537 kts 112°
2026-05-05 14:41 60.47383 -21.96676 32254 ft 536 kts 112°
2026-05-05 14:41 60.44225 -21.82998 32261 ft 535 kts 112°
2026-05-05 14:42 60.41080 -21.69467 32262 ft 534 kts 112°
2026-05-05 14:42 60.37907 -21.55895 32259 ft 533 kts 112°
2026-05-05 14:43 60.34723 -21.42366 32266 ft 533 kts 113°
2026-05-05 14:43 60.31533 -21.28892 32264 ft 532 kts 113°
2026-05-05 14:44 60.28332 -21.15455 32264 ft 531 kts 113°
2026-05-05 14:44 60.25123 -21.02073 32272 ft 530 kts 113°
2026-05-05 14:45 60.21905 -20.88731 32257 ft 530 kts 114°
2026-05-05 14:45 60.18677 -20.75427 32274 ft 529 kts 114°
2026-05-05 14:46 60.15439 -20.62168 32260 ft 528 kts 114°
2026-05-05 14:46 60.12195 -20.48959 32259 ft 528 kts 114°
2026-05-05 14:47 60.08934 -20.35763 32284 ft 527 kts 114°
2026-05-05 14:47 60.05668 -20.22624 32261 ft 527 kts 114°
2026-05-05 14:48 60.02399 -20.09538 32259 ft 526 kts 115°
2026-05-05 14:48 59.99359 -19.96273 32273 ft 523 kts 107°
2026-05-05 14:49 59.97228 -19.82441 32261 ft 521 kts 104°
2026-05-05 14:49 59.95510 -19.70927 32272 ft 521 kts 104°
2026-05-05 14:50 59.93400 -19.57094 32270 ft 521 kts 104°
2026-05-05 14:50 59.91250 -19.43306 32276 ft 521 kts 105°
2026-05-05 14:51 59.89079 -19.29540 32269 ft 521 kts 105°
2026-05-05 14:51 59.86894 -19.15791 32268 ft 521 kts 105°
2026-05-05 14:52 59.84697 -19.02061 32271 ft 521 kts 105°
2026-05-05 14:52 59.82485 -18.88341 32272 ft 521 kts 105°
2026-05-05 14:53 59.80260 -18.74648 32272 ft 521 kts 106°
2026-05-05 14:53 59.78024 -18.60987 32265 ft 521 kts 106°
2026-05-05 14:54 59.75768 -18.47319 32266 ft 520 kts 106°
2026-05-05 14:54 59.73504 -18.33700 32266 ft 520 kts 106°
2026-05-05 14:55 59.71229 -18.20115 32270 ft 520 kts 107°
2026-05-05 14:55 59.68939 -18.06547 32265 ft 520 kts 107°
2026-05-05 14:56 59.66633 -17.92986 32265 ft 519 kts 107°
2026-05-05 14:56 59.64316 -17.79462 32262 ft 519 kts 107°
2026-05-05 14:57 59.61984 -17.65948 32262 ft 519 kts 107°
2026-05-05 14:57 59.59642 -17.52477 32261 ft 519 kts 107°
2026-05-05 14:58 59.57301 -17.39106 32261 ft 519 kts 107°
2026-05-05 14:58 59.54933 -17.25679 32259 ft 518 kts 108°
2026-05-05 14:59 59.52555 -17.12296 32259 ft 518 kts 108°
2026-05-05 14:59 59.50159 -16.98903 32257 ft 518 kts 108°
2026-05-05 15:00 59.48145 -16.87720 32256 ft 517 kts 108°
2026-05-05 15:00 59.45339 -16.72247 32252 ft 517 kts 108°
2026-05-05 15:01 59.42910 -16.58958 32252 ft 517 kts 108°
2026-05-05 15:01 59.40467 -16.45681 32255 ft 517 kts 109°
2026-05-05 15:02 59.38012 -16.32433 32250 ft 516 kts 109°
2026-05-05 15:02 59.35545 -16.19212 32253 ft 516 kts 109°
2026-05-05 15:03 59.33065 -16.06013 32249 ft 516 kts 109°
2026-05-05 15:03 59.30572 -15.92830 32243 ft 516 kts 109°
2026-05-05 15:04 59.28066 -15.79676 32253 ft 516 kts 109°
2026-05-05 15:04 59.25543 -15.66515 32259 ft 517 kts 110°
2026-05-05 15:05 59.21739 -15.46839 32248 ft 516 kts 110°
2026-05-05 15:06 59.19183 -15.33733 32246 ft 516 kts 110°
2026-05-05 15:06 59.16617 -15.20659 32247 ft 516 kts 110°
2026-05-05 15:07 59.14039 -15.07609 32245 ft 516 kts 110°
2026-05-05 15:07 59.11467 -14.94674 32239 ft 516 kts 110°
2026-05-05 15:08 59.08848 -14.81592 32245 ft 516 kts 110°
2026-05-05 15:08 59.06251 -14.68703 32242 ft 515 kts 111°
2026-05-05 15:09 59.03626 -14.55758 32241 ft 515 kts 111°
2026-05-05 15:09 59.00990 -14.42839 32233 ft 514 kts 111°
2026-05-05 15:10 58.98342 -14.29948 32236 ft 514 kts 111°
2026-05-05 15:10 58.95684 -14.17091 32235 ft 514 kts 111°
2026-05-05 15:11 58.93013 -14.04250 32234 ft 514 kts 111°
2026-05-05 15:11 58.90332 -13.91442 32242 ft 513 kts 111°
2026-05-05 15:12 58.87639 -13.78655 32237 ft 513 kts 111°
2026-05-05 15:12 58.84936 -13.65902 32235 ft 513 kts 112°
2026-05-05 15:13 58.82220 -13.53169 32230 ft 512 kts 112°
2026-05-05 15:13 58.79496 -13.40472 32229 ft 512 kts 112°
2026-05-05 15:14 58.76761 -13.27805 32229 ft 512 kts 112°
2026-05-05 15:14 58.74015 -13.15163 32231 ft 512 kts 112°
2026-05-05 15:15 58.71257 -13.02545 32226 ft 512 kts 112°
2026-05-05 15:15 58.68483 -12.89931 32226 ft 512 kts 113°
2026-05-05 15:16 58.65699 -12.77343 32228 ft 512 kts 113°
2026-05-05 15:16 58.62900 -12.64765 32219 ft 513 kts 113°
2026-05-05 15:17 58.60081 -12.52173 32228 ft 514 kts 114°
2026-05-05 15:17 58.57246 -12.39584 32226 ft 515 kts 114°
2026-05-05 15:18 58.54393 -12.26994 32226 ft 516 kts 114°
2026-05-05 15:18 58.51540 -12.14476 32224 ft 517 kts 114°
2026-05-05 15:19 58.48631 -12.01784 32225 ft 518 kts 114°
2026-05-05 15:19 58.45743 -11.89263 32221 ft 519 kts 115°
2026-05-05 15:20 58.42823 -11.76675 32220 ft 519 kts 115°
2026-05-05 15:20 58.39886 -11.64089 32221 ft 519 kts 115°
2026-05-05 15:21 58.36933 -11.51505 32213 ft 520 kts 115°
2026-05-05 15:21 58.33970 -11.38955 32217 ft 520 kts 116°
2026-05-05 15:22 58.30994 -11.26422 32214 ft 520 kts 116°
2026-05-05 15:22 58.28002 -11.13895 32210 ft 520 kts 116°
2026-05-05 15:23 58.24995 -11.01380 32208 ft 521 kts 116°
2026-05-05 15:23 58.21974 -10.88876 32206 ft 521 kts 116°
2026-05-05 15:24 58.18942 -10.76398 32206 ft 521 kts 116°
2026-05-05 15:24 58.15894 -10.63924 32202 ft 521 kts 117°
2026-05-05 15:25 58.12839 -10.51493 32206 ft 521 kts 117°
2026-05-05 15:25 58.09774 -10.39095 32204 ft 521 kts 117°
2026-05-05 15:26 58.06693 -10.26698 32204 ft 520 kts 117°
2026-05-05 15:26 58.03608 -10.14353 32200 ft 520 kts 117°
2026-05-05 15:27 58.00511 -10.02023 32200 ft 520 kts 117°
2026-05-05 15:27 57.97680 -9.89444 32192 ft 521 kts 113°
2026-05-05 15:28 57.95005 -9.76772 32192 ft 521 kts 114°
2026-05-05 15:28 57.92285 -9.64135 32195 ft 520 kts 114°
2026-05-05 15:29 57.88981 -9.52256 32189 ft 514 kts 130°
2026-05-05 15:29 57.84030 -9.42769 32196 ft 505 kts 148°
2026-05-05 15:30 57.78278 -9.35248 32196 ft 504 kts 149°
2026-05-05 15:30 57.72506 -9.27788 32188 ft 505 kts 149°
2026-05-05 15:31 57.66750 -9.20262 32198 ft 505 kts 149°
2026-05-05 15:31 57.60995 -9.12697 32192 ft 505 kts 149°
2026-05-05 15:32 57.55253 -9.05163 32187 ft 505 kts 149°
2026-05-05 15:32 57.49506 -8.97658 32178 ft 504 kts 149°
2026-05-05 15:33 57.43765 -8.90195 32177 ft 503 kts 149°
2026-05-05 15:33 57.38023 -8.82762 32178 ft 503 kts 149°
2026-05-05 15:34 57.32285 -8.75363 32171 ft 502 kts 149°
2026-05-05 15:34 57.26547 -8.67991 32169 ft 502 kts 149°
2026-05-05 15:35 57.20814 -8.60655 32170 ft 501 kts 149°
2026-05-05 15:35 57.15083 -8.53350 32168 ft 501 kts 149°
2026-05-05 15:36 57.09344 -8.46063 32166 ft 501 kts 149°
2026-05-05 15:36 57.04570 -8.40022 32164 ft 501 kts 149°
2026-05-05 15:37 56.98832 -8.32786 32158 ft 501 kts 149°
2026-05-05 15:37 56.93089 -8.25572 32164 ft 500 kts 149°
2026-05-05 15:38 56.87346 -8.18385 32157 ft 500 kts 149°
2026-05-05 15:38 56.81604 -8.11226 32158 ft 500 kts 149°
2026-05-05 15:39 56.75852 -8.04082 32154 ft 499 kts 149°
2026-05-05 15:39 56.70111 -7.96979 32151 ft 499 kts 149°
2026-05-05 15:40 56.64368 -7.89898 32152 ft 498 kts 149°
2026-05-05 15:40 56.58632 -7.82854 32145 ft 498 kts 149°
2026-05-05 15:41 56.52891 -7.75830 32144 ft 498 kts 149°
2026-05-05 15:41 56.47150 -7.68831 32145 ft 497 kts 149°
2026-05-05 15:42 56.41414 -7.61865 32141 ft 497 kts 149°
2026-05-05 15:42 56.35677 -7.54923 32133 ft 496 kts 149°
2026-05-05 15:43 56.29936 -7.48003 32128 ft 496 kts 149°
2026-05-05 15:43 56.24200 -7.41113 32134 ft 496 kts 149°
2026-05-05 15:44 56.18499 -7.34290 32133 ft 496 kts 149°
2026-05-05 15:44 56.12749 -7.27435 32127 ft 496 kts 149°
2026-05-05 15:45 56.07002 -7.20606 32121 ft 496 kts 149°
2026-05-05 15:45 56.01254 -7.13802 32119 ft 495 kts 149°
2026-05-05 15:46 55.95507 -7.07024 32114 ft 495 kts 149°
2026-05-05 15:46 55.89753 -7.00261 32113 ft 495 kts 149°
2026-05-05 15:47 55.83996 -6.93521 32112 ft 495 kts 149°
2026-05-05 15:47 55.78243 -6.86808 32106 ft 495 kts 149°
2026-05-05 15:48 55.72487 -6.80116 32103 ft 495 kts 149°
2026-05-05 15:48 55.66721 -6.73437 32105 ft 495 kts 149°
2026-05-05 15:49 55.60957 -6.66783 32100 ft 495 kts 149°
2026-05-05 15:49 55.55189 -6.60149 32099 ft 495 kts 149°
2026-05-05 15:50 55.49420 -6.53536 32097 ft 495 kts 149°
2026-05-05 15:50 55.43642 -6.46937 32096 ft 495 kts 149°
2026-05-05 15:51 55.37869 -6.40368 32085 ft 495 kts 149°
2026-05-05 15:51 55.32084 -6.33807 32092 ft 494 kts 149°
2026-05-05 15:52 55.26303 -6.27275 32091 ft 494 kts 149°
2026-05-05 15:52 55.20515 -6.20758 32087 ft 494 kts 149°
2026-05-05 15:53 55.14733 -6.14269 32079 ft 494 kts 149°
2026-05-05 15:53 55.08940 -6.07791 32076 ft 494 kts 149°
2026-05-05 15:54 55.03189 -6.01382 32071 ft 494 kts 149°
2026-05-05 15:54 54.97399 -5.94953 32067 ft 493 kts 149°
2026-05-05 15:55 54.91613 -5.88549 32067 ft 493 kts 149°
2026-05-05 15:55 54.85823 -5.82164 32074 ft 493 kts 149°
2026-05-05 15:56 54.80096 -5.75870 32071 ft 493 kts 149°
2026-05-05 15:56 54.74305 -5.69527 32069 ft 493 kts 150°
2026-05-05 15:57 54.68495 -5.63186 32072 ft 493 kts 150°
2026-05-05 15:57 54.62696 -5.56878 32072 ft 493 kts 150°
2026-05-05 15:58 54.56888 -5.50581 32067 ft 493 kts 150°
2026-05-05 15:58 54.51075 -5.44301 32065 ft 493 kts 150°
2026-05-05 15:59 54.45264 -5.38043 32061 ft 493 kts 150°
2026-05-05 15:59 54.39445 -5.31799 32061 ft 493 kts 150°
2026-05-05 16:00 54.33626 -5.25575 32058 ft 493 kts 150°
2026-05-05 16:00 54.27809 -5.19375 32056 ft 493 kts 150°
2026-05-05 16:01 54.21987 -5.13190 32054 ft 493 kts 150°
2026-05-05 16:01 54.16160 -5.07020 32053 ft 492 kts 150°
2026-05-05 16:02 54.10339 -5.00878 32049 ft 492 kts 150°
2026-05-05 16:02 54.04511 -4.94746 32051 ft 492 kts 150°
2026-05-05 16:03 53.98895 -4.88221 32043 ft 494 kts 141°
2026-05-05 16:03 53.94089 -4.79866 32049 ft 497 kts 129°
2026-05-05 16:04 53.90021 -4.70412 32048 ft 497 kts 127°
2026-05-05 16:04 53.85947 -4.60922 32042 ft 497 kts 128°
2026-05-05 16:05 53.81821 -4.51521 32041 ft 497 kts 129°
2026-05-05 16:05 53.77704 -4.42151 32039 ft 496 kts 129°
2026-05-05 16:06 53.73597 -4.32786 32035 ft 496 kts 129°
2026-05-05 16:06 53.69482 -4.23441 32033 ft 495 kts 129°
2026-05-05 16:07 53.65369 -4.14139 32045 ft 495 kts 129°
2026-05-05 16:07 53.61240 -4.04859 32047 ft 494 kts 129°
2026-05-05 16:08 53.57095 -3.95647 32040 ft 493 kts 129°
2026-05-05 16:08 53.52949 -3.86465 32036 ft 493 kts 129°
2026-05-05 16:09 53.48802 -3.77302 32038 ft 492 kts 129°
2026-05-05 16:09 53.44664 -3.68183 32043 ft 491 kts 129°
2026-05-05 16:10 53.40484 -3.59145 32042 ft 489 kts 131°
2026-05-05 16:10 53.35986 -3.50595 32039 ft 488 kts 133°
2026-05-05 16:11 53.31493 -3.42076 32036 ft 488 kts 133°
2026-05-05 16:12 53.22513 -3.25067 32046 ft 488 kts 132°
2026-05-05 16:13 53.11257 -3.03924 32047 ft 487 kts 132°
2026-05-05 16:13 53.06766 -2.95530 32048 ft 486 kts 131°
2026-05-05 16:14 52.97780 -2.78824 32020 ft 484 kts 131°
2026-05-05 16:15 52.88805 -2.62240 32020 ft 482 kts 131°
2026-05-05 16:16 52.79839 -2.45776 32020 ft 481 kts 131°
2026-05-05 16:17 52.73117 -2.33531 32022 ft 480 kts 132°
2026-05-05 16:18 52.66375 -2.21303 32022 ft 481 kts 132°
2026-05-05 16:19 52.59607 -2.09084 32022 ft 482 kts 133°
2026-05-05 16:19 52.52817 -1.96887 31997 ft 483 kts 134°
2026-05-05 16:20 52.43733 -1.80663 31992 ft 483 kts 134°
2026-05-05 16:22 52.33094 -1.61862 31991 ft 482 kts 135°
2026-05-05 16:23 52.23806 -1.46082 31997 ft 481 kts 135°
2026-05-05 16:23 52.16857 -1.34294 31993 ft 480 kts 135°
2026-05-05 16:24 52.12227 -1.26462 31991 ft 480 kts 136°
2026-05-05 16:25 52.05286 -1.14771 31975 ft 479 kts 136°
2026-05-05 16:25 51.98281 -1.03221 31957 ft 478 kts 136°
2026-05-05 16:26 51.89037 -0.87753 31953 ft 477 kts 136°
2026-05-05 16:27 51.84419 -0.80058 31955 ft 476 kts 136°
2026-05-05 16:27 51.79796 -0.72393 31950 ft 476 kts 136°
2026-05-05 16:28 51.75166 -0.64762 31956 ft 475 kts 136°
2026-05-05 16:28 51.70531 -0.57153 31937 ft 475 kts 136°
2026-05-05 16:29 51.65898 -0.49568 31938 ft 475 kts 137°
2026-05-05 16:29 51.61261 -0.41996 31938 ft 475 kts 137°
2026-05-05 16:30 51.56621 -0.34442 31938 ft 475 kts 137°
2026-05-05 16:30 51.51970 -0.26894 31935 ft 475 kts 137°
2026-05-05 16:31 51.47328 -0.19382 31932 ft 475 kts 137°
2026-05-05 16:31 51.42668 -0.11864 31938 ft 475 kts 137°
2026-05-05 16:32 51.38013 -0.04376 31940 ft 475 kts 137°
2026-05-05 16:32 51.34018 0.04016 31934 ft 479 kts 116°
2026-05-05 16:33 51.32399 0.14353 31953 ft 485 kts 96°
2026-05-05 16:33 51.32011 0.25131 31936 ft 486 kts 95°
2026-05-05 16:34 51.31807 0.30517 32083 ft 486 kts 96°
2026-05-05 16:34 51.31574 0.35911 32093 ft 486 kts 96°
2026-05-05 16:34 51.31051 0.46690 32095 ft 486 kts 96°
2026-05-05 16:35 51.30512 0.57474 32084 ft 486 kts 96°
2026-05-05 16:35 51.30050 0.68255 32044 ft 487 kts 95°
2026-05-05 16:36 51.29689 0.78982 32003 ft 486 kts 95°
2026-05-05 16:36 51.29301 0.89762 31925 ft 486 kts 95°
2026-05-05 16:37 51.28891 1.00462 31932 ft 486 kts 96°
2026-05-05 16:37 51.28469 1.11153 31929 ft 486 kts 96°
2026-05-05 16:38 51.28030 1.21932 31924 ft 486 kts 96°
2026-05-05 16:38 51.27579 1.32788 31921 ft 486 kts 96°
2026-05-05 16:39 51.27122 1.43584 31924 ft 487 kts 96°
2026-05-05 16:39 51.26660 1.54285 31917 ft 486 kts 96°
2026-05-05 16:40 51.26191 1.65041 31912 ft 487 kts 96°
2026-05-05 16:40 51.25712 1.75826 31900 ft 487 kts 96°
2026-05-05 16:41 51.25221 1.86624 31914 ft 487 kts 97°
2026-05-05 16:41 51.24724 1.97391 31908 ft 487 kts 97°
2026-05-05 16:42 51.24226 2.08170 31911 ft 487 kts 97°
2026-05-05 16:42 51.23735 2.18937 31906 ft 487 kts 97°
2026-05-05 16:43 51.23233 2.29708 31909 ft 486 kts 97°
2026-05-05 16:43 51.21912 2.40146 31904 ft 478 kts 116°
2026-05-05 16:44 51.18458 2.49017 31910 ft 469 kts 134°
2026-05-05 16:44 51.14093 2.56733 31903 ft 469 kts 134°
2026-05-05 16:45 51.09957 2.64751 31901 ft 473 kts 124°
2026-05-05 16:45 51.08627 2.69582 31904 ft 479 kts 107°
2026-05-05 16:45 51.07901 2.74721 31900 ft 479 kts 105°
2026-05-05 16:46 51.06452 2.85087 31913 ft 481 kts 106°
2026-05-05 16:46 51.04909 2.95434 31904 ft 481 kts 107°
2026-05-05 16:47 51.03320 3.05750 31900 ft 480 kts 107°
2026-05-05 16:47 51.01722 3.16034 31892 ft 479 kts 107°
2026-05-05 16:48 51.00123 3.26287 31887 ft 479 kts 107°
2026-05-05 16:48 50.98539 3.36411 31747 ft 455 kts 107°
2026-05-05 16:49 50.97801 3.41127 31447 ft 427 kts 107°
2026-05-05 16:49 50.97100 3.45578 31063 ft 405 kts 107°
2026-05-05 16:49 50.96431 3.49803 30525 ft 389 kts 107°
2026-05-05 16:49 50.95792 3.53959 29815 ft 386 kts 106°
2026-05-05 16:50 50.95175 3.58091 29214 ft 381 kts 106°
2026-05-05 16:50 50.94580 3.62125 28409 ft 372 kts 105°
2026-05-05 16:50 50.93991 3.66105 27400 ft 369 kts 105°
2026-05-05 16:50 50.93405 3.70052 26423 ft 367 kts 105°
2026-05-05 16:51 50.92818 3.73974 25535 ft 363 kts 105°
2026-05-05 16:51 50.92238 3.77847 24724 ft 359 kts 105°
2026-05-05 16:51 50.91663 3.81666 23938 ft 354 kts 105°
2026-05-05 16:51 50.91094 3.85437 23099 ft 350 kts 105°
2026-05-05 16:52 50.90538 3.89109 22241 ft 345 kts 105°
2026-05-05 16:52 50.89966 3.92874 21601 ft 349 kts 104°
2026-05-05 16:52 50.89400 3.96593 21268 ft 344 kts 104°
2026-05-05 16:52 50.88841 4.00259 20910 ft 341 kts 104°
2026-05-05 16:53 50.88285 4.03893 20595 ft 337 kts 104°
2026-05-05 16:53 50.87736 4.07477 20223 ft 334 kts 104°
2026-05-05 16:53 50.87191 4.11029 19835 ft 332 kts 104°
2026-05-05 16:53 50.86645 4.14573 19446 ft 330 kts 104°
2026-05-05 16:54 50.86101 4.18098 19089 ft 328 kts 104°
2026-05-05 16:54 50.85563 4.21583 18704 ft 326 kts 104°
2026-05-05 16:54 50.85030 4.25023 18313 ft 325 kts 103°
2026-05-05 16:54 50.84484 4.28540 17895 ft 323 kts 103°
2026-05-05 16:55 50.83952 4.31963 17462 ft 316 kts 104°
2026-05-05 16:55 50.83434 4.35290 16703 ft 309 kts 103°
2026-05-05 16:55 50.82927 4.38534 15903 ft 306 kts 103°
2026-05-05 16:55 50.82420 4.41769 15157 ft 301 kts 103°
2026-05-05 16:56 50.81913 4.45001 14392 ft 298 kts 103°
2026-05-05 16:56 50.81421 4.48133 13609 ft 296 kts 103°
2026-05-05 16:56 50.80928 4.51269 12754 ft 294 kts 103°
2026-05-05 16:56 50.80435 4.54399 11882 ft 293 kts 103°
2026-05-05 16:57 50.79888 4.57542 10989 ft 292 kts 112°
2026-05-05 16:57 50.78801 4.60179 10166 ft 291 kts 128°
2026-05-05 16:57 50.77522 4.62621 9557 ft 285 kts 128°
2026-05-05 16:57 50.76265 4.65032 9200 ft 281 kts 128°
2026-05-05 16:58 50.75045 4.67397 9017 ft 272 kts 128°
2026-05-05 16:58 50.73880 4.69674 9077 ft 263 kts 128°
2026-05-05 16:58 50.72729 4.71935 9034 ft 265 kts 127°
2026-05-05 16:58 50.71576 4.74212 8821 ft 266 kts 127°
2026-05-05 16:59 50.70419 4.76501 8558 ft 267 kts 127°
2026-05-05 16:59 50.69261 4.78794 8188 ft 268 kts 128°
2026-05-05 16:59 50.68100 4.81098 7826 ft 268 kts 128°
2026-05-05 16:59 50.66947 4.83386 7578 ft 265 kts 127°
2026-05-05 17:00 50.65804 4.85654 7235 ft 264 kts 128°
2026-05-05 17:00 50.64659 4.87922 6849 ft 264 kts 128°
2026-05-05 17:00 50.63524 4.90170 6539 ft 260 kts 128°
2026-05-05 17:00 50.62402 4.92389 6165 ft 259 kts 128°
2026-05-05 17:01 50.61289 4.94592 5793 ft 257 kts 128°
2026-05-05 17:01 50.60176 4.96791 5383 ft 256 kts 128°
2026-05-05 17:01 50.59068 4.98980 5020 ft 254 kts 128°
2026-05-05 17:01 50.57989 5.01108 4827 ft 245 kts 128°
2026-05-05 17:02 50.56949 5.03159 4616 ft 234 kts 128°
2026-05-05 17:02 50.55943 5.05142 4301 ft 230 kts 128°
2026-05-05 17:02 50.54947 5.07104 3912 ft 230 kts 129°
2026-05-05 17:02 50.53966 5.09036 3532 ft 228 kts 129°
2026-05-05 17:03 50.52968 5.10998 3166 ft 227 kts 129°
2026-05-05 17:03 50.52012 5.12875 3013 ft 213 kts 129°
2026-05-05 17:03 50.51100 5.14665 3064 ft 210 kts 129°
2026-05-05 17:03 50.50183 5.16462 2995 ft 210 kts 129°
2026-05-05 17:04 50.49561 5.18450 2967 ft 193 kts 99°
2026-05-05 17:04 50.49575 5.20399 2970 ft 169 kts 90°
2026-05-05 17:04 50.49361 5.22192 3162 ft 170 kts 106°
2026-05-05 17:04 50.49193 5.23419 3854 ft 167 kts 101°
2026-05-05 17:05 50.49175 5.25185 5118 ft 179 kts 82°
2026-05-05 17:05 50.50261 5.27458 4487 ft 208 kts 25°
2026-05-05 17:05 50.51150 5.27923 4260 ft 196 kts 18°
2026-05-05 17:05 50.52429 5.28574 3809 ft 188 kts 19°
2026-05-05 17:06 50.54046 5.29434 3179 ft 183 kts 23°
2026-05-05 17:06 50.54773 5.30163 3062 ft 187 kts 44°
2026-05-05 17:06 50.55668 5.31623 3015 ft 183 kts 47°
2026-05-05 17:06 50.56553 5.33030 3000 ft 180 kts 46°
2026-05-05 17:07 50.57417 5.34396 2806 ft 172 kts 46°
2026-05-05 17:07 50.58243 5.35706 2441 ft 165 kts 47°
2026-05-05 17:07 50.59034 5.36962 1875 ft 162 kts 46°
2026-05-05 17:07 50.59818 5.38201 1432 ft 150 kts 46°
2026-05-05 17:08 50.60575 5.39401 1339 ft 159 kts 45°
2026-05-05 17:08 50.61341 5.40613 1150 ft 153 kts 44°
2026-05-05 17:08 50.62077 5.41777 1005 ft 145 kts 44°
2026-05-05 17:08 50.62791 5.42897 718 ft 139 kts 45°
2026-05-05 17:09 50.63373 5.43828 631 ft 86 kts 46°
2026-05-05 17:09 50.63655 5.44266 628 ft 49 kts 43°
2026-05-05 17:09 50.63857 5.44614 629 ft 38 kts 45°
2026-05-05 17:09 50.63955 5.44884 611 ft 21 kts 76°
2026-05-05 17:10 50.63971 5.44997 602 ft 0 kts 79°
2026-05-05 17:11 50.63980 5.45066 600 ft 15 kts 77°
2026-05-05 17:11 50.63931 5.45093 598 ft 14 kts 227°
2026-05-05 17:11 50.63842 5.44934 599 ft 20 kts 224°
2026-05-05 17:11 50.63767 5.44827 599 ft 14 kts 221°
2026-05-05 17:12 50.63732 5.44777 599 ft 0 kts 227°
2026-05-05 17:13 50.63722 5.44758 599 ft 8 kts 231°
2026-05-05 17:13 50.63659 5.44740 598 ft 11 kts 131°
2026-05-05 17:13 50.63632 5.44792 597 ft 0 kts 132°